Track STARLINK-3834 now! 10-day predictions STARLINK-3834 is classified as:
1 52368U 22045AP 22185.91667824 .00005041 00000-0 40368-4 0 9993 2 52368 53.2155 109.4664 0002851 26.2776 84.9858 15.73174178 1303